Time,TemperatureF,DewpointF,PressureIn,WindDirection,WindDirectionDegrees,WindSpeedMPH,WindSpeedGustMPH,Humidity,HourlyPrecipIn,Conditions,Clouds,dailyrainin,SoftwareType,DateUTC
2013-02-22 00:00:00,25.0,23.0,29.93,East,79,9.8,17.4,92,0.00,,,0.00,VWS V14.00,2013-02-22 06:00:00,
2013-02-22 00:10:00,25.0,23.2,29.91,East,79,17.4,21.9,93,0.00,,,0.00,VWS V14.00,2013-02-22 06:10:00,
2013-02-22 00:20:00,25.0,23.2,29.91,East,79,16.1,21.0,93,0.00,,,0.00,VWS V14.00,2013-02-22 06:20:00,
2013-02-22 00:30:00,25.0,23.2,29.91,East,79,16.1,21.0,93,0.00,,,0.00,VWS V14.00,2013-02-22 06:30:00,
2013-02-22 00:40:00,25.0,23.2,29.91,East,79,20.1,21.0,93,0.00,,,0.00,VWS V14.00,2013-02-22 06:40:00,
2013-02-22 00:50:00,25.0,23.2,29.91,ENE,78,8.1,21.9,93,0.00,,,0.00,VWS V14.00,2013-02-22 06:50:00,
2013-02-22 01:00:00,25.0,23.2,29.88,ENE,78,10.7,21.9,93,0.00,,,0.00,VWS V14.00,2013-02-22 07:00:00,
2013-02-22 01:10:00,25.2,23.4,29.88,ENE,78,17.4,26.4,93,0.00,,,0.00,VWS V14.00,2013-02-22 07:10:00,
2013-02-22 01:20:00,25.0,23.2,29.88,ENE,78,16.1,24.6,93,0.00,,,0.00,VWS V14.00,2013-02-22 07:20:00,
2013-02-22 01:30:00,25.0,23.2,29.88,ENE,77,16.1,25.5,93,0.00,,,0.00,VWS V14.00,2013-02-22 07:30:00,
2013-02-22 01:40:00,24.8,23.3,29.88,ENE,77,30.0,30.0,94,0.00,,,0.00,VWS V14.00,2013-02-22 07:40:00,
2013-02-22 01:50:00,24.6,22.9,29.88,ENE,77,20.1,30.0,93,0.00,,,0.00,VWS V14.00,2013-02-22 07:50:00,
2013-02-22 02:00:00,24.6,23.1,29.88,ENE,77,10.7,24.6,94,0.00,,,0.00,VWS V14.00,2013-02-22 08:00:00,
2013-02-22 02:10:00,24.4,22.7,29.88,ENE,76,12.5,25.5,93,0.00,,,0.00,VWS V14.00,2013-02-22 08:10:00,
2013-02-22 02:20:00,24.4,22.7,29.88,ENE,76,7.2,21.9,93,0.00,,,0.00,VWS V14.00,2013-02-22 08:20:00,
2013-02-22 02:30:00,24.3,22.8,29.85,ENE,76,11.6,21.0,94,0.00,,,0.00,VWS V14.00,2013-02-22 08:30:00,
2013-02-22 02:40:00,24.3,22.8,29.85,ENE,76,8.1,20.1,94,0.00,,OVC008,0.00,VWS V14.00,2013-02-22 08:40:00,
2013-02-22 02:50:00,24.3,22.8,29.85,ENE,76,15.2,16.6,94,0.00,,,0.00,VWS V14.00,2013-02-22 08:50:00,
2013-02-22 03:00:00,24.1,22.6,29.85,ENE,76,11.6,16.1,94,0.00,,,0.00,VWS V14.00,2013-02-22 09:00:00,
2013-02-22 03:10:00,23.9,22.2,29.85,ENE,76,15.2,17.4,93,0.00,,,0.00,VWS V14.00,2013-02-22 09:10:00,
2013-02-22 03:20:00,23.7,22.0,29.85,ENE,76,12.5,24.6,93,0.00,,,0.00,VWS V14.00,2013-02-22 09:20:00,
2013-02-22 03:30:00,23.7,22.0,29.85,ENE,76,8.1,21.0,93,0.00,,,0.00,VWS V14.00,2013-02-22 09:30:00,
2013-02-22 03:40:00,23.7,22.0,29.85,ENE,76,10.7,18.3,93,0.00,,,0.00,VWS V14.00,2013-02-22 09:40:00,
2013-02-22 03:50:00,23.7,22.0,29.85,ENE,76,16.6,21.0,93,0.00,,,0.00,VWS V14.00,2013-02-22 09:50:00,
2013-02-22 04:00:00,23.7,22.0,29.82,ENE,76,16.6,19.2,93,0.00,,,0.00,VWS V14.00,2013-02-22 10:00:00,
2013-02-22 04:10:00,23.7,22.0,29.82,ENE,76,15.2,17.4,93,0.00,,,0.00,VWS V14.00,2013-02-22 10:10:00,
2013-02-22 04:20:00,23.5,21.8,29.82,ENE,76,8.1,16.6,93,0.00,,,0.00,VWS V14.00,2013-02-22 10:20:00,
2013-02-22 04:30:00,23.5,21.8,29.82,ENE,76,9.8,17.4,93,0.00,,,0.00,VWS V14.00,2013-02-22 10:30:00,
2013-02-22 04:40:00,23.5,21.8,29.82,ENE,76,20.1,20.1,93,0.00,,,0.00,VWS V14.00,2013-02-22 10:40:00,
2013-02-22 04:50:00,23.5,21.8,29.82,ENE,76,11.6,21.0,93,0.00,,,0.00,VWS V14.00,2013-02-22 10:50:00,
2013-02-22 05:00:00,23.5,21.6,29.82,ENE,76,11.6,18.3,92,0.00,,,0.00,VWS V14.00,2013-02-22 11:00:00,
2013-02-22 05:10:00,23.7,21.7,29.82,ENE,76,16.1,18.3,92,0.00,,,0.00,VWS V14.00,2013-02-22 11:10:00,
2013-02-22 05:20:00,23.7,21.7,29.82,ENE,76,8.1,20.1,92,0.00,,,0.00,VWS V14.00,2013-02-22 11:20:00,
2013-02-22 05:30:00,23.7,21.7,29.82,ENE,76,7.2,15.2,92,0.00,,,0.00,VWS V14.00,2013-02-22 11:30:00,
2013-02-22 05:40:00,23.9,21.9,29.79,ENE,76,6.3,15.2,92,0.00,,OVC025,0.00,VWS V14.00,2013-02-22 11:40:00,
2013-02-22 05:50:00,23.9,21.9,29.79,ENE,76,7.2,21.9,92,0.00,,OVC021,0.00,VWS V14.00,2013-02-22 11:50:00,
2013-02-22 06:00:00,23.9,21.9,29.79,ENE,76,10.7,17.4,92,0.00,,OVC021,0.00,VWS V14.00,2013-02-22 12:00:00,
2013-02-22 06:10:00,24.1,22.1,29.79,ENE,76,10.7,16.1,92,0.00,,OVC021,0.00,VWS V14.00,2013-02-22 12:10:00,
2013-02-22 06:20:00,24.1,22.1,29.79,ENE,76,11.6,19.2,92,0.00,,OVC021,0.00,VWS V14.00,2013-02-22 12:20:00,
2013-02-22 06:30:00,24.1,22.1,29.79,ENE,76,16.1,16.6,92,0.00,,OVC019,0.00,VWS V14.00,2013-02-22 12:30:00,
2013-02-22 06:40:00,24.1,22.1,29.79,ENE,76,7.2,16.1,92,0.00,,OVC019,0.00,VWS V14.00,2013-02-22 12:40:00,
2013-02-22 06:50:00,24.1,22.1,29.79,ENE,76,12.5,16.6,92,0.00,,OVC015,0.00,VWS V14.00,2013-02-22 12:50:00,
2013-02-22 07:00:00,24.1,22.1,29.79,ENE,75,7.2,16.6,92,0.00,,OVC015,0.00,VWS V14.00,2013-02-22 13:00:00,
2013-02-22 07:10:00,24.1,22.1,29.79,ENE,75,5.4,16.6,92,0.00,,OVC013,0.00,VWS V14.00,2013-02-22 13:10:00,
2013-02-22 07:20:00,24.3,22.3,29.79,ENE,76,9.8,12.5,92,0.00,,OVC013,0.00,VWS V14.00,2013-02-22 13:20:00,
2013-02-22 07:30:00,24.4,22.7,29.79,ENE,75,0.0,16.1,93,0.00,,OVC011,0.00,VWS V14.00,2013-02-22 13:30:00,
2013-02-22 07:40:00,24.6,22.9,29.79,ENE,75,6.3,16.1,93,0.00,,OVC011,0.00,VWS V14.00,2013-02-22 13:40:00,
2013-02-22 07:50:00,24.8,23.1,29.79,ENE,75,4.5,16.6,93,0.00,,OVC011,0.00,VWS V14.00,2013-02-22 13:50:00,
2013-02-22 08:00:00,25.2,23.4,29.79,ENE,75,8.1,15.2,93,0.00,,OVC011,0.00,VWS V14.00,2013-02-22 14:00:00,
2013-02-22 08:10:00,25.3,23.6,29.79,ENE,75,10.7,15.2,93,0.00,,OVC009,0.00,VWS V14.00,2013-02-22 14:10:00,
2013-02-22 08:20:00,25.7,24.2,29.79,ENE,75,11.6,12.5,94,0.00,,OVC009,0.00,VWS V14.00,2013-02-22 14:20:00,
2013-02-22 08:30:00,25.9,24.4,29.79,ENE,75,6.3,12.5,94,0.00,,OVC009,0.00,VWS V14.00,2013-02-22 14:30:00,
2013-02-22 08:40:00,26.2,25.0,29.79,ENE,76,6.3,10.7,95,0.00,,OVC009,0.00,VWS V14.00,2013-02-22 14:40:00,
2013-02-22 08:50:00,26.6,25.4,29.79,ENE,76,9.8,11.6,95,0.00,,OVC007,0.00,VWS V14.00,2013-02-22 14:50:00,
2013-02-22 09:00:00,27.0,25.7,29.79,ENE,75,7.2,11.6,95,0.00,,OVC007,0.00,VWS V14.00,2013-02-22 15:00:00,
2013-02-22 09:10:00,27.1,25.9,29.79,ENE,76,5.4,11.6,95,0.00,,,0.00,VWS V14.00,2013-02-22 15:10:00,
2013-02-22 09:20:00,27.5,26.3,29.79,ENE,75,7.2,10.7,95,0.00,,,0.00,VWS V14.00,2013-02-22 15:20:00,
2013-02-22 09:30:00,27.9,26.9,29.79,ENE,76,0.0,11.6,96,0.00,,,0.00,VWS V14.00,2013-02-22 15:30:00,
2013-02-22 09:40:00,28.0,27.0,29.79,ENE,76,6.3,11.6,96,0.00,,,0.00,VWS V14.00,2013-02-22 15:40:00,
2013-02-22 09:50:00,28.4,27.4,29.79,ENE,76,7.2,12.5,96,0.00,,,0.00,VWS V14.00,2013-02-22 15:50:00,
2013-02-22 10:00:00,28.8,28.0,29.79,ENE,76,7.2,10.7,97,0.00,,,0.00,VWS V14.00,2013-02-22 16:00:00,
2013-02-22 10:10:00,28.9,28.2,29.79,ENE,76,4.5,11.6,97,0.00,,,0.00,VWS V14.00,2013-02-22 16:10:00,
2013-02-22 10:20:00,29.1,28.4,29.79,ENE,76,4.5,15.2,97,0.00,,,0.00,VWS V14.00,2013-02-22 16:20:00,
2013-02-22 10:30:00,29.7,29.2,29.79,ENE,76,6.3,7.2,98,0.00,,,0.00,VWS V14.00,2013-02-22 16:30:00,
2013-02-22 10:40:00,30.2,29.7,29.79,ENE,76,6.3,11.6,98,0.00,,OVC003,0.00,VWS V14.00,2013-02-22 16:40:00,
2013-02-22 10:50:00,30.7,30.2,29.79,ENE,76,7.2,15.2,98,0.00,,OVC003,0.00,VWS V14.00,2013-02-22 16:50:00,
2013-02-22 11:00:00,31.3,30.8,29.79,ENE,76,0.0,10.7,98,0.00,,OVC003,0.00,VWS V14.00,2013-02-22 17:00:00,
2013-02-22 11:10:00,32.0,31.5,29.79,East,85,0.0,8.1,98,0.00,,OVC003,0.00,VWS V14.00,2013-02-22 17:10:00,
2013-02-22 11:20:00,32.2,31.7,29.79,SE,124,6.3,10.7,98,0.00,,OVC003,0.00,VWS V14.00,2013-02-22 17:20:00,
2013-02-22 11:30:00,32.5,32.0,29.79,SSE,147,4.5,9.8,98,0.00,,OVC003,0.00,VWS V14.00,2013-02-22 17:30:00,
2013-02-22 11:40:00,33.3,32.8,29.79,SW,222,0.0,13.4,98,0.00,,,0.00,VWS V14.00,2013-02-22 17:40:00,
2013-02-22 11:50:00,33.6,33.1,29.79,SW,226,7.2,16.6,98,0.00,,,0.00,VWS V14.00,2013-02-22 17:50:00,
2013-02-22 12:00:00,33.8,33.3,29.79,WSW,242,9.8,14.3,98,0.00,,,0.00,VWS V14.00,2013-02-22 18:00:00,
2013-02-22 12:10:00,34.0,33.5,29.79,WSW,239,7.2,16.1,98,0.00,,,0.00,VWS V14.00,2013-02-22 18:10:00,
2013-02-22 12:20:00,34.2,33.4,29.79,SSW,201,15.2,20.1,97,0.00,,,0.00,VWS V14.00,2013-02-22 18:20:00,
2013-02-22 12:30:00,34.3,33.3,29.79,West,270,12.5,20.1,96,0.00,,,0.00,VWS V14.00,2013-02-22 18:30:00,
2013-02-22 12:40:00,34.2,32.9,29.79,SSW,208,10.7,19.2,95,0.00,,,0.00,VWS V14.00,2013-02-22 18:40:00,
2013-02-22 12:50:00,34.2,32.6,29.79,SW,222,16.6,21.0,94,0.00,,,0.00,VWS V14.00,2013-02-22 18:50:00,
2013-02-22 13:00:00,34.3,32.5,29.79,SW,223,15.2,21.9,93,0.00,,,0.00,VWS V14.00,2013-02-22 19:00:00,
2013-02-22 13:10:00,34.3,32.3,29.79,WSW,254,12.5,17.4,92,0.00,,,0.00,VWS V14.00,2013-02-22 19:10:00,
2013-02-22 13:20:00,34.0,31.9,29.79,SW,222,20.1,20.1,92,0.00,,,0.00,VWS V14.00,2013-02-22 19:20:00,
2013-02-22 13:30:00,34.3,32.0,29.79,WSW,240,11.6,20.1,91,0.00,,,0.00,VWS V14.00,2013-02-22 19:30:00,
2013-02-22 13:40:00,34.3,31.7,29.79,West,259,16.6,21.9,90,0.00,,,0.00,VWS V14.00,2013-02-22 19:40:00,
2013-02-22 13:50:00,34.3,30.9,29.79,SW,236,16.1,21.0,87,0.00,,OVC013,0.00,VWS V14.00,2013-02-22 19:50:00,
2013-02-22 14:00:00,34.2,30.1,29.79,SSW,207,21.0,29.1,85,0.00,,OVC013,0.00,VWS V14.00,2013-02-22 20:00:00,
2013-02-22 14:10:00,33.8,29.2,29.79,SW,220,25.5,25.5,83,0.00,,OVC014,0.00,VWS V14.00,2013-02-22 20:10:00,
2013-02-22 14:20:00,33.4,28.5,29.79,SW,231,17.4,30.0,82,0.00,,OVC014,0.00,VWS V14.00,2013-02-22 20:20:00,
2013-02-22 14:30:00,33.3,28.1,29.79,SW,228,17.4,26.4,81,0.00,,OVC014,0.00,VWS V14.00,2013-02-22 20:30:00,
2013-02-22 14:40:00,32.9,27.1,29.82,SW,226,26.4,30.9,79,0.00,,OVC014,0.00,VWS V14.00,2013-02-22 20:40:00,
2013-02-22 14:50:00,32.7,26.9,29.82,SW,233,15.2,31.8,79,0.00,,OVC014,0.00,VWS V14.00,2013-02-22 20:50:00,
2013-02-22 15:00:00,32.5,26.8,29.82,SW,224,16.6,29.1,79,0.00,,OVC014,0.00,VWS V14.00,2013-02-22 21:00:00,
2013-02-22 15:10:00,32.4,26.0,29.82,SW,228,15.2,30.0,77,0.00,,OVC014,0.00,VWS V14.00,2013-02-22 21:10:00,
2013-02-22 15:20:00,32.2,25.8,29.82,SW,230,24.6,25.5,77,0.00,,OVC014,0.00,VWS V14.00,2013-02-22 21:20:00,
2013-02-22 15:30:00,31.6,25.3,29.82,SW,230,16.6,25.5,77,0.00,,OVC014,0.00,VWS V14.00,2013-02-22 21:30:00,
2013-02-22 15:40:00,31.5,25.1,29.82,SW,230,12.5,22.8,77,0.00,,OVC025,0.00,VWS V14.00,2013-02-22 21:40:00,
2013-02-22 15:50:00,31.1,24.8,29.82,SW,232,9.8,25.5,77,0.00,,OVC014,0.00,VWS V14.00,2013-02-22 21:50:00,
2013-02-22 16:00:00,31.1,24.8,29.82,SW,226,11.6,25.5,77,0.00,,OVC014,0.00,VWS V14.00,2013-02-22 22:00:00,
2013-02-22 16:10:00,30.9,24.6,29.82,SW,221,16.1,24.6,77,0.00,,OVC016,0.00,VWS V14.00,2013-02-22 22:10:00,
2013-02-22 16:20:00,30.9,24.6,29.82,SW,221,10.7,21.9,77,0.00,,OVC016,0.00,VWS V14.00,2013-02-22 22:20:00,
2013-02-22 16:30:00,30.9,24.6,29.85,SW,220,15.2,25.5,77,0.00,,OVC016,0.00,VWS V14.00,2013-02-22 22:30:00,
2013-02-22 16:40:00,30.7,24.4,29.85,SW,227,15.2,21.0,77,0.00,,OVC018,0.00,VWS V14.00,2013-02-22 22:40:00,
2013-02-22 16:50:00,30.7,24.1,29.85,WSW,238,28.2,28.2,76,0.00,,OVC018,0.00,VWS V14.00,2013-02-22 22:50:00,
2013-02-22 17:00:00,30.7,23.8,29.85,West,260,16.1,28.2,75,0.00,,,0.00,VWS V14.00,2013-02-22 23:00:00,
2013-02-22 17:10:00,30.6,23.6,29.85,WSW,237,12.5,20.1,75,0.00,,,0.00,VWS V14.00,2013-02-22 23:10:00,
2013-02-22 17:20:00,30.6,23.6,29.85,SW,219,12.5,21.9,75,0.00,,,0.00,VWS V14.00,2013-02-22 23:20:00,
2013-02-22 17:30:00,30.2,23.9,29.85,SW,230,21.0,21.0,77,0.00,,,0.00,VWS V14.00,2013-02-22 23:30:00,
2013-02-22 17:40:00,30.0,24.0,29.85,West,263,11.6,21.9,78,0.00,,,0.00,VWS V14.00,2013-02-22 23:40:00,
2013-02-22 17:50:00,29.7,24.0,29.85,SW,229,12.5,21.9,79,0.00,,OVC022,0.00,VWS V14.00,2013-02-22 23:50:00,
2013-02-22 18:00:00,29.7,24.0,29.85,West,260,12.5,20.1,79,0.00,,OVC022,0.00,VWS V14.00,2013-02-23 00:00:00,
2013-02-22 18:10:00,29.5,24.1,29.88,WSW,237,14.3,25.5,80,0.00,,OVC024,0.00,VWS V14.00,2013-02-23 00:10:00,
2013-02-22 18:20:00,29.5,24.1,29.88,SW,214,11.6,21.9,80,0.00,,OVC024,0.00,VWS V14.00,2013-02-23 00:20:00,
2013-02-22 18:30:00,29.5,24.1,29.88,WSW,250,12.5,21.0,80,0.00,,OVC024,0.00,VWS V14.00,2013-02-23 00:30:00,
2013-02-22 18:40:00,29.3,23.6,29.88,SW,225,10.7,21.0,79,0.00,,OVC029,0.00,VWS V14.00,2013-02-23 00:40:00,
2013-02-22 18:50:00,29.3,23.6,29.88,SW,226,16.6,17.4,79,0.00,,OVC022,0.00,VWS V14.00,2013-02-23 00:50:00,
2013-02-22 19:00:00,29.3,23.6,29.88,West,260,13.4,18.3,79,0.00,,OVC022,0.00,VWS V14.00,2013-02-23 01:00:00,
2013-02-22 19:10:00,29.3,23.6,29.88,WSW,240,10.7,25.5,79,0.00,,OVC022,0.00,VWS V14.00,2013-02-23 01:10:00,
2013-02-22 19:20:00,29.3,23.6,29.88,West,267,15.2,20.1,79,0.00,,OVC022,0.00,VWS V14.00,2013-02-23 01:20:00,
2013-02-22 19:30:00,29.3,23.6,29.88,West,263,12.5,21.0,79,0.00,,OVC022,0.00,VWS V14.00,2013-02-23 01:30:00,
2013-02-22 19:40:00,28.8,23.1,29.88,WSW,248,12.5,21.9,79,0.00,,,0.00,VWS V14.00,2013-02-23 01:40:00,
2013-02-22 19:50:00,28.6,23.2,29.88,WSW,238,8.1,17.4,80,0.00,,,0.00,VWS V14.00,2013-02-23 01:50:00,
2013-02-22 20:00:00,28.6,23.2,29.88,SSW,205,16.6,20.1,80,0.00,,,0.00,VWS V14.00,2013-02-23 02:00:00,
2013-02-22 20:10:00,28.6,23.2,29.88,WSW,253,16.1,17.4,80,0.00,,,0.00,VWS V14.00,2013-02-23 02:10:00,
2013-02-22 20:20:00,28.6,23.2,29.88,West,263,12.5,21.0,80,0.00,,,0.00,VWS V14.00,2013-02-23 02:20:00,
2013-02-22 20:30:00,28.6,23.2,29.88,SW,236,16.1,21.0,80,0.00,,,0.00,VWS V14.00,2013-02-23 02:30:00,
2013-02-22 20:40:00,28.6,23.2,29.88,WSW,252,10.7,21.0,80,0.00,,,0.00,VWS V14.00,2013-02-23 02:40:00,
2013-02-22 20:50:00,28.6,23.2,29.88,WSW,249,12.5,17.4,80,0.00,,,0.00,VWS V14.00,2013-02-23 02:50:00,
2013-02-22 21:00:00,28.6,23.2,29.88,WSW,255,15.2,21.0,80,0.00,,,0.00,VWS V14.00,2013-02-23 03:00:00,
2013-02-22 21:10:00,28.6,23.2,29.91,WSW,258,11.6,19.2,80,0.00,,OVC013,0.00,VWS V14.00,2013-02-23 03:10:00,
2013-02-22 21:20:00,28.6,23.2,29.91,WSW,256,10.7,21.9,80,0.00,,OVC013,0.00,VWS V14.00,2013-02-23 03:20:00,
2013-02-22 21:30:00,28.6,23.2,29.91,SW,233,16.6,18.3,80,0.00,,OVC013,0.00,VWS V14.00,2013-02-23 03:30:00,
2013-02-22 21:40:00,28.6,23.2,29.91,WSW,254,16.1,19.2,80,0.00,,OVC013,0.00,VWS V14.00,2013-02-23 03:40:00,
2013-02-22 21:50:00,28.6,23.2,29.91,WSW,254,15.2,21.0,80,0.00,,OVC018,0.00,VWS V14.00,2013-02-23 03:50:00,
2013-02-22 22:00:00,28.0,22.7,29.91,WSW,248,16.1,21.0,80,0.00,,OVC018,0.00,VWS V14.00,2013-02-23 04:00:00,
2013-02-22 22:10:00,27.9,22.2,29.91,WSW,240,16.6,21.9,79,0.00,,OVC034,0.00,VWS V14.00,2013-02-23 04:10:00,
2013-02-22 22:20:00,27.9,22.2,29.91,WSW,237,16.1,24.6,79,0.00,,OVC034,0.00,VWS V14.00,2013-02-23 04:20:00,
2013-02-22 22:30:00,27.9,22.5,29.88,WSW,244,17.4,21.0,80,0.00,,OVC034,0.00,VWS V14.00,2013-02-23 04:30:00,
2013-02-22 22:40:00,27.9,22.5,29.88,WSW,242,16.1,24.6,80,0.00,,OVC034,0.00,VWS V14.00,2013-02-23 04:40:00,
2013-02-22 22:50:00,27.9,22.5,29.88,WSW,256,16.1,25.5,80,0.00,,OVC034,0.00,VWS V14.00,2013-02-23 04:50:00,
2013-02-22 23:00:00,27.7,22.3,29.91,West,263,18.3,21.0,80,0.00,,OVC034,0.00,VWS V14.00,2013-02-23 05:00:00,
2013-02-22 23:10:00,27.5,22.1,29.91,WSW,241,17.4,21.0,80,0.00,,OVC016,0.00,VWS V14.00,2013-02-23 05:10:00,
2013-02-22 23:20:00,27.1,21.8,29.91,West,267,11.6,21.0,80,0.00,,OVC016,0.00,VWS V14.00,2013-02-23 05:20:00,
2013-02-22 23:30:00,27.0,21.6,29.91,WSW,248,15.2,21.0,80,0.00,,OVC016,0.00,VWS V14.00,2013-02-23 05:30:00,
2013-02-22 23:40:00,26.6,21.6,29.91,SW,217,10.7,20.1,81,0.00,,OVC016,0.00,VWS V14.00,2013-02-23 05:40:00,
2013-02-22 23:50:00,26.4,21.4,29.91,WSW,245,14.3,21.9,81,0.00,,,0.00,VWS V14.00,2013-02-23 05:50:00,